This demonstration page uses our WeatherBlox Daily Observations layout. Learn more.

Hourly Observations for January 31, 2020

Temp ( °F °C ) Dew Point ( °F °C ) Humidity (%) Winds ( mph kmh ) Pressure ( in mb ) Visibility ( mi km ) Precip ( " mm )
12:54 am 00:54 Cloudy 33 0.6 30 -1.1 89 89 SSE 3 6 30.02 1017 7 11.26538 0 0
1:54 am 01:54 Cloudy with Mist and Fog 32 0 30 -1.1 92 92 SE 3 6 30.01 1016 6 9.65604 0.001 0.001
2:54 am 02:54 Cloudy with Mist and Fog 33 0.6 30 -1.1 89 89 SSE 3 6 30 1016 6 9.65604 0 0
3:16 am 03:16 Cloudy with Mist and Fog 32 0 30 -1.1 92 92 SSE 5 7 30.02 1017 6 9.65604 0 0
3:46 am 03:46 Cloudy with Mist and Fog 32 0 30 -1.1 92 92 S 3 6 30.01 1016 5 8.0467 0 0
3:54 am 03:54 Cloudy with Mist and Fog 32 0 31 -0.6 96 96 S 6 9 29.98 1015 5 8.0467 0 0
4:54 am 04:54 Cloudy with Mist and Fog 33 0.6 31 -0.6 92 92 Calm 29.99 1016 6 9.65604 0 0
5:02 am 05:02 Cloudy with Mist and Fog 33 0.6 31 -0.6 92 92 Calm 30.02 1016 6 9.65604 0 0
5:14 am 05:14 Cloudy 33 0.6 31 -0.6 92 92 Calm 30.03 1017 7 11.26538 0 0
5:30 am 05:30 Cloudy with Mist and Fog 33 0.6 31 -0.6 92 92 Calm 30.03 1017 6 9.65604 0 0
5:54 am 05:54 Cloudy 34 1.1 31 -0.6 89 89 W 5 7 29.99 1016 8 12.87472 0 0
6:44 am 06:44 Cloudy 36 2.2 33 0.6 89 89 NW 10 17 30.02 1017 10 16.0934 0 0
6:54 am 06:54 Cloudy 36 2.2 33 0.6 89 89 NW 10 17 30 1016 10 16.0934 0 0
7:54 am 07:54 Cloudy 36 2.2 32 0 86 86 NW 10 17 30.01 1016 10 16.0934 0 0
8:39 am 08:39 Cloudy 36 2.2 31 -0.6 82 82 NW 9 15 30.04 1017 10 16.0934 0 0
8:54 am 08:54 Cloudy 36 2.2 31 -0.6 82 82 NW 10 17 30.02 1017 10 16.0934 0 0
9:08 am 09:08 Cloudy 36 2.2 31 -0.6 82 82 NW 10 17 30.05 1018 10 16.0934 0 0
9:34 am 09:34 Cloudy 36 2.2 30 -1.1 79 79 NW 14 22 30.06 1018 10 16.0934 0 0
9:54 am 09:54 Cloudy 37 2.8 30 -1.1 76 76 NNW 13 20 30.04 1017 10 16.0934 0 0
10:19 am 10:19 Cloudy 36 2.2 29 -1.7 76 76 NW 12 19 30.08 1019 10 16.0934 0 0
10:52 am 10:52 Cloudy 36 2 30 -1 81 81 NW 9 15 30.09 1019 10 16.0934 0 0
10:54 am 10:54 Cloudy 36 2.2 31 -0.6 82 82 NW 10 17 30.07 1018 10 16.0934 0 0
11:18 am 11:18 Cloudy 37 2.8 32 0 82 82 WNW 10 17 30.09 1019 10 16.0934 0 0
11:54 am 11:54 Cloudy 37 2.8 30 -1.1 76 76 WNW 10 17 30.06 1018 10 16.0934 0 0
12:54 pm 12:54 Cloudy 37 2.8 30 -1.1 76 76 WNW 7 11 30.04 1017 10 16.0934 0 0
1:01 pm 13:01 Cloudy 38 3.3 30 -1.1 73 73 NW 12 19 30.05 1018 10 16.0934 0 0
1:54 pm 13:54 Cloudy 37 2.8 29 -1.7 73 73 NNW 16 26 30.04 1017 10 16.0934 0 0
2:33 pm 14:33 Cloudy 36 2.2 29 -1.7 76 76 NW 10 17 30.07 1018 10 16.0934 0 0
2:54 pm 14:54 Cloudy 36 2.2 29 -1.7 76 76 NW 12 19 30.05 1018 10 16.0934 0 0
3:11 pm 15:11 Cloudy 36 2.2 29 -1.7 76 76 NW 14 22 30.08 1019 10 16.0934 0 0
3:54 pm 15:54 Cloudy 36 2.2 29 -1.7 76 76 NW 13 20 30.06 1018 10 16.0934 0 0
4:20 pm 16:20 Cloudy 36 2.2 29 -1.7 76 76 NW 10 17 30.09 1019 10 16.0934 0 0
4:34 pm 16:34 Cloudy 35 1.7 28 -2.2 76 76 NNW 13 20 30.1 1019 10 16.0934 0 0
4:54 pm 16:54 Cloudy 35 1.7 28 -2.2 76 76 NW 9 15 30.08 1019 10 16.0934 0 0
5:54 pm 17:54 Cloudy 35 1.7 28 -2.2 76 76 NW 9 15 30.09 1019 10 16.0934 0 0
6:19 pm 18:19 Cloudy 35 1.7 28 -2.2 76 76 NW 8 13 30.13 1020 10 16.0934 0 0
6:54 pm 18:54 Cloudy 35 1.7 28 -2.2 76 76 NW 7 11 30.12 1020 10 16.0934 0 0
7:54 pm 19:54 Cloudy 35 1.7 29 -1.7 78 78 NW 5 7 30.11 1020 10 16.0934 0 0
8:54 pm 20:54 Cloudy 34 1.1 29 -1.7 82 82 NNW 6 9 30.13 1020 10 16.0934 0 0
9:09 pm 21:09 Cloudy 34 1.1 29 -1.7 82 82 N 5 7 30.14 1021 10 16.0934 0 0
9:54 pm 21:54 Cloudy 34 1.1 28 -2.2 79 79 NNW 7 11 30.13 1020 10 16.0934 0 0
10:54 pm 22:54 Cloudy 34 1.1 28 -2.2 79 79 NW 5 7 30.14 1021 10 16.0934 0 0
11:54 pm 23:54 Cloudy 34 1.1 28 -2.2 79 79 W 5 7 30.13 1020 10 16.0934 0 0

Powered by AerisWeather